User: anonymous   Login
Location: Kermapucano
(48.0667°N, 3.3000°W)
Time: 22:06:41
(UTC+00:00)
Language:

USA 306 - Orbit

View from above orbital plane
View from above orbital plane
View from above satellite
View from above satellite

Ground track
Ground track

The orbit data is extracted from the following two-line orbital elements,

1 45874U 20046B   21057.81619450 0.00002200  00000-0  18186-3 0    03
2 45874  53.9826  24.8316 0008988 163.5409 196.4590 14.98458837    09
Epoch (UTC): 26 February 2021 19:35:19
Eccentricity: 0.0008988
inclination: 53.9826°
perigee height: 565 km
apogee height: 578 km
right ascension of ascending node: 24.8316°
argument of perigee: 163.5409°
revolutions per day: 14.98458837
mean anomaly at epoch: 196.4590°
orbit number at epoch: 0

The dashed part of the orbit path shows where the satellite is in the earth's shadow,  

DLR